Tracking 33197 objects as of 18-Feb-2026
HD Live streaming from Space Station
objects crossing your sky now

TIROS 6

Track TIROS 6 now!
10-day predictions
TIROS 6 is classified as:


NORAD ID: 397
Int'l Code: 1962-047A
Perigee: 579.9 km
Apogee: 595.0 km
Inclination: 58.3 °
Period: 96.3 minutes
Semi major axis: 6958 km
RCS: 0.807 m2 (medium)
Launch date: September 18, 1962
Source: United States (US)
Launch site: AIR FORCE EASTERN TEST RANGE (AFETR)
Your satellite tracking list
Your tracking list is empty




NASA's NSSDC Master Catalog

Two Line Element Set (TLE):
1 00397U 62047A   26049.28814199  .00001640  00000-0  16686-3 0  9992
2 00397  58.3042   3.7763 0010886  46.6044 313.5908 14.95661685394530
Source of the keplerian elements: AFSPC